Flag for Albania Weather past 2 weeks in Durrës, Albania

Now
57 °F

Broken clouds.


Feels Like: 56 °F
Forecast: 55 / 61 °F
Wind: 6 mph from South

Location: Tirana Airport

Current Time: Mar 27, 2015 at 8:07:44 AM

Latest Report: Mar 27, 2015 at 7:20 AM


Visibility: N/A

Pressure: 29.59 "Hg

Humidity: 82%

Dew point: 52 °F

Location of DurrësLocation

Historic Weather in Durrës — Graph

°F

Durrës temperature yesterday

Maximum temperature yesterday: 73 °F (at 2:20 PM)
Minimum temperature yesterday: 45 °F (at 6:20 AM)
Average temperature yesterday: 61 °F

Past Weeks' High & Low Weather Summary

 TemperatureHumidityPressure
High73 °F (Mar 26, 2:20 PM)94% (Mar 23, 7:50 AM)30.42 "Hg (Mar 23, 7:50 AM)
Low28 °F (Mar 21, 5:50 AM)12% (Mar 21, 1:20 PM)29.59 "Hg (Mar 27, 5:50 AM)
Average51 °F61%30.07 "Hg
* Reported Mar 12 6:20 AM — Mar 27 6:50 AM, Durrës, Weather by CustomWeather, © 2015

Note: Actual official high and low records may vary slightly from our data, if they occured in-between our weather recording intervals... More about our weather records

Advertising

Durrës weather history for previous 24 hours

 ConditionsComfort  
Time TempWeatherWind HumidityBarometerVisibility
6:50 AM
Fri, Mar 27
55 °FMostly cloudy.3 mph88%29.59 "HgN/A
6:20 AM54 °FMostly cloudy.2 mph94%29.59 "HgN/A
5:50 AM54 °FMostly cloudy.2 mph88%29.59 "HgN/A
5:20 AM54 °FMostly cloudy.5 mph94%29.62 "HgN/A
4:50 AM54 °FMostly cloudy.5 mph88%29.62 "HgN/A
4:20 AM55 °FOvercast.No wind82%29.62 "HgN/A
3:50 AM54 °FOvercast.5 mph88%29.62 "HgN/A
3:20 AM54 °FOvercast.3 mph88%29.62 "HgN/A
2:50 AM54 °FOvercast.5 mph88%29.65 "HgN/A
2:20 AM55 °FLight rain. Overcast.No wind82%29.65 "HgN/A
1:50 AM57 °FDrizzle. Mostly cloudy.2 mph77%29.65 "HgN/A
1:20 AM57 °FMostly cloudy.2 mph77%29.68 "HgN/A
12:50 AM57 °FMostly cloudy.3 mph72%29.68 "HgN/A
12:20 AM59 °FPassing clouds.6 mph63%29.68 "HgN/A
11:50 PM
Thu, Mar 26
59 °FPassing clouds.8 mph63%29.71 "HgN/A
11:20 PM59 °FPassing clouds.6 mph63%29.71 "HgN/A
10:50 PM59 °FPartly cloudy.10 mph63%29.71 "HgN/A
10:20 PM59 °FOvercast.13 mph63%29.71 "HgN/A
9:50 PM61 °FLight rain. Overcast.17 mph59%29.71 "HgN/A
9:20 PM63 °FPartly cloudy.7 mph52%29.71 "HgN/A
8:50 PM61 °FPassing clouds.3 mph63%29.71 "HgN/A
8:20 PM63 °FPassing clouds.2 mph56%29.71 "HgN/A
7:50 PM63 °FPassing clouds.5 mph52%29.71 "HgN/A
7:20 PM64 °FPassing clouds.7 mph49%29.71 "HgN/A
6:50 PM66 °FPartly cloudy.7 mph46%29.71 "HgN/A
6:20 PM66 °FPassing clouds.5 mph52%29.71 "HgN/A
5:50 PM66 °FBroken clouds.2 mph49%29.71 "HgN/A
5:20 PM66 °FBroken clouds.5 mph49%29.71 "HgN/A
4:50 PM68 °FBroken clouds.6 mph46%29.71 "HgN/A
4:20 PM68 °FPartly sunny.7 mph46%29.74 "HgN/A
3:50 PM70 °FScattered clouds.10 mph43%29.74 "HgN/A
3:20 PM73 °FScattered clouds.5 mph38%29.74 "HgN/A
2:50 PM73 °FScattered clouds.8 mph36%29.74 "HgN/A
2:20 PM73 °FScattered clouds.6 mph36%29.74 "HgN/A
1:50 PM72 °FPartly sunny.6 mph41%29.77 "HgN/A
1:20 PM72 °FPartly sunny.5 mph41%29.77 "HgN/A
12:50 PM70 °FBroken clouds.5 mph40%29.80 "HgN/A
12:20 PM72 °FScattered clouds.8 mph38%29.80 "HgN/A
11:50 AM72 °FScattered clouds.8 mph41%29.80 "HgN/A
11:20 AM70 °FScattered clouds.8 mph43%29.80 "HgN/A
10:50 AM70 °FPartly sunny.7 mph43%29.83 "HgN/A
10:20 AM68 °FPartly sunny.5 mph43%29.83 "HgN/A
9:50 AM66 °FPartly sunny.6 mph46%29.86 "HgN/A
9:20 AM66 °FPartly sunny.2 mph40%29.86 "HgN/A
8:50 AM64 °FScattered clouds.2 mph46%29.86 "HgN/A
8:20 AM61 °FScattered clouds.2 mph55%29.86 "HgN/A
Weather by CustomWeather, © 2015

See weather overviewHow to use our weather pages